15min,AgWx,beryljct,423,09OCT2018:00:00:00,36.1,13.02,36.3,35.0,36.0,36.5,35.0,90,91,89,0.620,33.4,33.9,32.4,1.206,0.4,298,29,1.4,-0.00023,-0.00035,49.9,53.6,24,0,0,35.9,7.71,0.00,0.00
15min,AgWx,beryljct,423,09OCT2018:00:15:00,35.6,13.01,34.4,32.9,34.2,34.9,32.9,92,93,90,0.584,32.2,32.9,30.9,3.376,1.9,206,0.1,3.5,-0.00016,-0.00020,49.7,53.6,24,0,0,35.4,7.71,0.00,0.00
15min,AgWx,beryljct,423,09OCT2018:00:30:00,34.9,13,32.9,33.5,32.5,33.7,31.7,93,95,92,0.611,30.7,32.4,29.7,1.118,2.6,206,0.6,3.5,-0.00013,-0.00016,49.6,53.5,24,0,0,35.7,7.71,0.00,0.00
15min,AgWx,beryljct,423,09OCT2018:00:45:00,34.4,12.99,34.3,33.0,33.9,34.5,33.0,93,94,92,0.590,32.1,32.8,31.1,3.42,1.1,202,11,3.4,-0.00019,-0.00027,49.3,53.4,24,0,0,35.6,7.71,0.00,0.00
15min,AgWx,beryljct,423,09OCT2018:01:00:00,34.1,12.97,33.1,32.6,32.8,33.3,32.3,93,94,92,0.582,31.0,31.7,30.5,3.288,2.9,165,3.7,4.1,-0.00012,-0.00015,49.2,53.4,24,0,0,35.4,7.71,0.00,0.00
15min,AgWx,beryljct,423,09OCT2018:01:15:00,33.9,12.97,32.3,30.8,32.1,33.1,30.8,93,94,92,0.542,30.3,31.5,28.9,1.951,3.7,183,12,5.2,-0.00010,-0.00012,48.9,53.3,24,0,0,35.7,7.71,0.00,0.00
15min,AgWx,beryljct,423,09OCT2018:01:30:00,33.4,12.98,31.2,30.4,30.8,31.5,30.4,94,95,93,0.537,29.2,30.1,28.8,4.713,2.3,245,48,5.0,-0.00014,-0.00017,48.8,53.2,24,0,0,35.5,7.71,0.00,0.00
15min,AgWx,beryljct,423,09OCT2018:01:45:00,33.2,12.97,32.6,33.9,31.8,33.9,30.4,95,96,94,0.627,30.5,32.7,28.8,3.223,3.9,329,21,5.7,-0.00011,-0.00012,48.6,53.2,24,0,0,35.7,7.71,0.00,0.00
15min,AgWx,beryljct,423,09OCT2018:02:00:00,33.1,12.83,32.1,31.6,31.9,34.5,30.8,93,95,90,0.566,30.1,33.3,28.7,0.811,0.9,318,13,3.5,-0.00019,-0.00027,48.4,53.1,24,0,0,35.5,7.71,0.00,0.00
15min,AgWx,beryljct,423,09OCT2018:02:15:00,32.8,12.96,32.0,31.0,31.6,32.0,30.5,94,94,93,0.552,30.1,30.5,28.7,1.622,1.3,239,81,2.9,-0.00017,-0.00023,48.2,53.0,24,0,0,35.3,7.71,0.00,0.00
15min,AgWx,beryljct,423,09OCT2018:02:30:00,32.4,12.96,30.9,30.4,30.5,31.1,30.3,94,95,94,0.542,29.1,29.6,28.8,0.526,1.5,166,0.1,2.6,-0.00016,-0.00021,48.1,52.9,24,0,0,35.4,7.71,0.00,0.00
15min,AgWx,beryljct,423,09OCT2018:02:45:00,32.1,12.96,31.3,31.8,30.7,31.8,29.8,95,96,94,0.579,29.4,30.7,28.2,4.319,3.9,165,7.3,5.9,-0.00011,-0.00012,47.9,52.8,24,0,0,35.6,7.71,0.00,0.00
15min,AgWx,beryljct,423,09OCT2018:03:00:00,32.2,12.95,31.2,29.8,30.9,31.8,29.5,94,95,93,0.527,29.5,30.7,27.9,3.201,3.4,165,20,4.4,-0.00011,-0.00013,47.7,52.8,24,0,0,35.3,7.71,0.00,0.00
15min,AgWx,beryljct,423,09OCT2018:03:15:00,32.1,12.94,32.0,31.9,31.4,32.4,29.9,95,96,94,0.576,30.1,31.2,28.5,3.069,3.2,168,14,3.9,-0.00012,-0.00014,47.5,52.7,24,0,0,35.4,7.71,0.00,0.00
15min,AgWx,beryljct,423,09OCT2018:03:30:00,32.1,12.94,31.1,30.4,30.8,31.9,30.4,94,94,93,0.539,29.3,30.5,28.9,1.359,2.0,137,0.9,3.1,-0.00015,-0.00019,47.4,52.6,24,0,0,35.3,7.71,0.00,0.00
15min,AgWx,beryljct,423,09OCT2018:03:45:00,31.7,12.93,30.6,29.9,30.2,30.4,29.8,94,95,94,0.531,28.8,29.0,28.4,0.965,1.2,137,0.2,1.7,-0.00017,-0.00023,47.2,52.5,24,0,0,35.4,7.71,0.00,0.00
15min,AgWx,beryljct,423,09OCT2018:04:00:00,31.3,12.92,30.2,29.4,29.8,30.1,29.4,95,95,94,0.520,28.4,28.8,28.0,0.811,1.1,136,0.8,2.3,-0.00017,-0.00024,47.0,52.4,24,0,0,35.7,7.71,0.00,0.00
15min,AgWx,beryljct,423,09OCT2018:04:15:00,31.0,12.92,29.4,28.5,29.1,29.5,28.3,94,95,94,0.500,27.6,28.2,26.8,3.639,1.4,145,52,4.2,-0.00016,-0.00022,46.9,52.3,24,0,0,35.4,7.71,0.00,0.00
15min,AgWx,beryljct,423,09OCT2018:04:30:00,31.0,12.92,30.5,30.3,29.8,30.4,28.5,95,95,94,0.541,28.5,29.0,27.1,5.02,4.2,331,5.7,5.2,-0.00010,-0.00011,46.7,52.3,24,0,0,35.6,7.71,0.00,0.00
15min,AgWx,beryljct,423,09OCT2018:04:45:00,31.4,12.9,31.4,31.5,30.8,31.5,30.3,95,95,95,0.571,29.5,30.3,29.0,3.771,4.7,337,7.3,5.6,-0.00009,-0.00010,46.6,52.2,24,0,0,35.8,7.71,0.00,0.00
15min,AgWx,beryljct,423,09OCT2018:05:00:00,31.9,12.91,32.1,31.4,31.6,31.7,31.4,95,95,94,0.564,30.3,30.5,30.0,2.499,3.0,348,2.5,3.9,-0.00012,-0.00015,46.4,52.1,24,0,0,35.6,7.71,0.00,0.00
15min,AgWx,beryljct,423,09OCT2018:05:15:00,32.0,12.9,31.5,30.5,31.2,31.9,30.5,94,95,93,0.540,29.7,30.6,28.6,0.395,1.5,328,46,3.7,-0.00016,-0.00021,46.3,52.0,24,0,0,35.4,7.71,0.00,0.00
15min,AgWx,beryljct,423,09OCT2018:05:30:00,31.7,12.9,30.8,29.2,30.5,30.9,29.2,94,95,93,0.509,29.1,29.6,27.5,4.691,1.6,201,34,5.5,-0.00016,-0.00021,46.2,51.9,24,0,0,35.3,7.71,0.00,0.00
15min,AgWx,beryljct,423,09OCT2018:05:45:00,31.4,12.9,29.6,28.7,29.3,29.7,28.7,95,95,94,0.506,27.9,28.4,27.3,2.609,3.7,169,12,5.5,-0.00010,-0.00012,46.0,51.8,24,0,0,35.6,7.71,0.00,0.00
15min,AgWx,beryljct,423,09OCT2018:06:00:00,31.1,12.9,29.4,29.8,28.8,29.8,28.5,95,96,95,0.534,27.6,28.7,27.2,1.644,1.9,182,4.3,3.6,0.00002,0.00003,45.9,51.7,24,0,0,35.7,7.71,0.00,0.00
15min,AgWx,beryljct,423,09OCT2018:06:15:00,31.3,12.9,31.5,31.2,30.8,31.3,29.8,96,96,95,0.564,29.7,30.1,28.7,0,0.6,185,0.2,2.0,0.00001,0.00001,45.8,51.7,24,0,0,35.6,7.71,0.00,0.00
15min,AgWx,beryljct,423,09OCT2018:06:30:00,31.6,12.88,31.3,31.2,30.8,31.3,30.5,95,95,94,0.563,29.5,30.1,29.1,0.504,0.8,114,14,1.4,0.00002,0.00002,45.7,51.6,24,1,0,35.6,7.71,0.00,0.00
15min,AgWx,beryljct,423,09OCT2018:06:45:00,32.0,12.9,31.4,31.0,31.0,31.3,30.8,95,95,95,0.557,29.7,30.1,29.5,1.491,0.8,111,0.0,1.5,0.00004,0.00004,45.6,51.5,24,6,0,35.5,7.71,0.00,0.00
15min,AgWx,beryljct,423,09OCT2018:07:00:00,32.4,12.98,31.5,31.3,31.0,31.3,30.9,95,95,95,0.564,29.7,30.0,29.5,0.373,1.2,119,5.9,2.0,0.00019,0.00021,45.5,51.4,24,44,0,38.3,7.71,0.00,0.00
15min,AgWx,beryljct,423,09OCT2018:07:15:00,33.2,13.02,32.5,32.4,32.0,32.5,31.3,95,95,95,0.587,30.7,31.2,30.0,3.836,1.2,128,4.7,3.8,0.00029,0.00032,45.4,51.4,24,74,0,42.9,7.71,0.00,0.00
15min,AgWx,beryljct,423,09OCT2018:07:30:00,33.6,13.03,32.8,32.4,32.4,32.7,32.2,95,95,94,0.587,31.0,31.3,30.8,0,2.5,166,19,4.0,0.00024,0.00027,45.3,51.3,24,54,0,36.8,7.71,0.00,0.00
15min,AgWx,beryljct,423,09OCT2018:07:45:00,33.6,13.13,33.0,32.7,32.5,32.8,32.4,95,95,95,0.597,31.2,31.5,31.0,0.658,0.0,189,0.0,0.7,0.00027,0.00028,45.2,51.2,24,59,0,36.2,7.71,0.00,0.00
15min,AgWx,beryljct,423,09OCT2018:08:00:00,33.8,13.17,33.9,33.8,33.4,33.9,32.8,95,96,94,0.625,32.1,32.7,31.4,2.324,1.9,335,66,3.6,0.00033,0.00036,45.1,51.1,24,73,0,38.1,7.71,0.00,0.00
15min,AgWx,beryljct,423,09OCT2018:08:15:00,34.2,13.78,33.9,33.9,33.5,33.9,33.2,95,95,95,0.626,32.1,32.6,31.9,2.565,1.8,343,11,2.8,0.00053,0.00058,45.1,51.0,24,130,0,39.6,7.71,0.00,0.00
15min,AgWx,beryljct,423,09OCT2018:08:30:00,35.5,14.74,35.3,35.9,34.7,35.9,33.9,94,95,93,0.663,33.2,34.1,32.6,1.271,2.2,25,9.7,3.2,0.00112,0.00120,45.0,51.0,24,313,0,52.3,7.71,0.00,0.00
15min,AgWx,beryljct,423,09OCT2018:08:45:00,38.1,14.66,37.7,38.2,37.1,38.4,36.0,89,93,86,0.678,34.2,34.8,33.9,1.14,1.4,16,15,2.8,0.00140,0.00152,45.0,50.9,23,358,0,59.6,7.71,0.00,0.00
15min,AgWx,beryljct,423,09OCT2018:09:00:00,40.9,14.66,39.4,39.7,39.0,39.9,38.2,86,88,84,0.700,35.2,36.1,34.5,2.28,2.5,70,15,3.8,0.00162,0.00177,45.0,50.8,24,408,0,62.1,7.70,0.00,0.00
15min,AgWx,beryljct,423,09OCT2018:09:15:00,43.5,14.54,40.7,41.1,40.3,41.1,39.6,82,85,80,0.703,35.4,36.1,34.5,0,1.2,79,7.9,2.2,0.00192,0.00208,45.0,50.8,23,452,0,66.8,7.70,0.00,0.00
15min,AgWx,beryljct,423,09OCT2018:09:30:00,46.0,14.56,42.2,42.5,41.9,42.6,41.1,82,84,80,0.745,36.7,37.5,35.6,1.052,1.6,123,12,3.5,0.00215,0.00233,45.1,50.7,24,494,0,71.1,7.70,0.00,0.00
15min,AgWx,beryljct,423,09OCT2018:09:45:00,48.0,14.5,43.7,43.9,43.3,44.2,42.6,79,82,75,0.755,37.3,38.0,36.5,3.354,2.1,134,10,3.9,0.00237,0.00258,45.2,50.6,24,534,0,72.6,7.70,0.00,0.00
15min,AgWx,beryljct,423,09OCT2018:10:00:00,49.6,14.45,45.4,45.8,45.1,45.9,43.9,77,80,74,0.778,38.3,39.8,37.0,3.42,3.3,137,13,5.7,0.00256,0.00283,45.4,50.6,24,572,0,70.7,7.70,0.00,0.00
15min,AgWx,beryljct,423,09OCT2018:10:15:00,50.9,14.52,47.5,48.3,47.1,48.4,45.8,73,76,67,0.856,38.8,40.5,37.5,3.179,3.5,149,16,6.0,0.00283,0.00315,45.7,50.5,24,607,0,71.1,7.70,0.00,0.00
15min,AgWx,beryljct,423,09OCT2018:10:30:00,52.3,14.4,50.4,50.9,50.0,51.2,48.3,62,74,54,0.715,37.6,41.1,34.7,3.88,4.4,172,17,7.2,0.00316,0.00361,46.0,50.5,24,638,0,72.2,7.70,0.00,0.00
15min,AgWx,beryljct,423,09OCT2018:10:45:00,53.8,14.03,52.6,53.1,52.2,53.4,50.8,54,60,48,0.701,35.9,38.3,33.3,3.617,4.9,169,16,7.4,0.00347,0.00405,46.4,50.5,24,666,0,72.4,7.70,0.00,0.00
15min,AgWx,beryljct,423,09OCT2018:11:00:00,55.4,14.01,54.3,54.6,54.1,54.6,53.2,47,52,43,0.719,34.3,37.4,31.7,8.31,7.7,165,14,12.2,0.00377,0.00461,46.8,50.5,24,690,0,70.9,7.69,0.00,0.00
15min,AgWx,beryljct,423,09OCT2018:11:15:00,56.8,13.95,55.8,56.2,55.5,56.4,54.6,47,53,40,0.608,35.8,39.2,31.9,8.57,8.6,171,21,12.2,0.00395,0.00486,47.2,50.5,24,709,0,70.5,7.69,0.00,0.00
15min,AgWx,beryljct,423,09OCT2018:11:30:00,58.1,13.89,56.9,56.9,56.7,57.3,56.1,43,48,38,0.640,34.2,37.3,31.6,6.664,8.2,186,17,12.4,0.00418,0.00516,47.7,50.5,24,725,0,72.1,7.69,0.00,0.00
15min,AgWx,beryljct,423,09OCT2018:11:45:00,59.2,13.87,57.5,57.5,57.3,58.2,56.8,41,46,38,0.703,34.1,37.4,31.3,11.64,8.7,186,22,13.5,0.00429,0.00534,48.2,50.5,24,739,0,72.0,7.69,0.00,0.00
15min,AgWx,beryljct,423,09OCT2018:12:00:00,60.0,13.88,57.9,57.8,57.8,58.5,57.0,42,50,34,0.594,35.0,38.9,29.9,12.36,11.7,179,17,17.0,0.00440,0.00563,48.7,50.6,24,750,0,70.1,7.69,0.00,0.00
15min,AgWx,beryljct,423,09OCT2018:12:15:00,60.4,13.88,58.3,58.7,58.1,59.0,57.5,41,47,34,0.653,34.4,37.7,30.1,8.7,10.4,199,24,16.1,0.00446,0.00565,49.2,50.6,24,754,0,70.2,7.68,0.00,0.00
15min,AgWx,beryljct,423,09OCT2018:12:30:00,60.8,13.83,58.8,58.9,58.7,59.4,58.3,38,44,33,0.666,33.4,36.5,29.5,11.25,10.5,197,22,14.7,0.00459,0.00584,49.7,50.7,24,761,0,71.1,7.68,0.00,0.00
15min,AgWx,beryljct,423,09OCT2018:12:45:00,61.3,13.83,58.9,59.1,58.7,59.7,58.0,37,41,34,0.624,32.7,35.2,30.1,11.51,9.6,229,34,15.2,0.00445,0.00565,50.2,50.8,24,732,0,70.3,7.67,0.00,0.00
15min,AgWx,beryljct,423,09OCT2018:13:00:00,61.8,13.81,59.1,58.9,59.1,59.6,58.4,38,42,33,0.641,33.2,36.7,29.2,10.41,12.7,190,13,18.8,0.00474,0.00617,50.6,50.9,24,772,0,70.0,7.67,0.00,0.00
15min,AgWx,beryljct,423,09OCT2018:13:15:00,62.1,13.85,59.1,59.7,59.0,59.7,58.2,38,43,35,0.758,33.4,37.4,31.2,11.53,12.5,199,13,18.3,0.00454,0.00594,51.1,51.0,24,735,0,69.0,7.67,0.00,0.00
15min,AgWx,beryljct,423,09OCT2018:13:30:00,62.4,13.84,59.4,59.3,59.4,60.3,58.7,40,44,37,0.660,34.9,38.2,32.5,14.07,12.3,210,13,18.6,0.00432,0.00566,51.6,51.2,24,692,0,68.8,7.67,0.00,0.00
15min,AgWx,beryljct,423,09OCT2018:13:45:00,62.7,13.79,59.4,59.0,59.4,59.9,58.9,39,42,36,0.657,34.3,36.6,31.7,16.31,14.6,207,15,20.6,0.00478,0.00630,52.0,51.3,24,775,0,68.9,7.66,0.00,0.00
15min,AgWx,beryljct,423,09OCT2018:14:00:00,63.0,13.79,59.4,59.6,59.3,59.9,58.9,38,41,35,0.678,33.8,36.1,32.0,16.64,13.8,201,14,20.1,0.00468,0.00617,52.5,51.4,24,753,0,68.3,7.66,0.00,0.00
15min,AgWx,beryljct,423,09OCT2018:14:15:00,63.1,13.78,59.3,59.2,59.3,59.7,59.0,38,41,36,0.650,34.0,36.1,31.9,13.68,14.1,196,12,19.9,0.00432,0.00580,52.8,51.6,24,673,0,66.4,7.66,0.00,0.00
15min,AgWx,beryljct,423,09OCT2018:14:30:00,63.1,13.8,59.2,58.7,59.2,59.6,58.7,38,41,35,0.595,33.3,36.0,31.4,16.79,14.4,192,12,17.8,0.00406,0.00555,53.1,51.7,24,612,0,64.7,7.66,0.00,0.00
15min,AgWx,beryljct,423,09OCT2018:14:45:00,62.9,13.88,59.2,59.5,59.1,59.5,58.6,36,39,34,0.645,32.5,34.6,30.7,16.42,15.0,203,14,20.7,0.00405,0.00560,53.3,51.9,24,600,0,63.7,7.66,0.00,0.00
15min,AgWx,beryljct,423,09OCT2018:15:00:00,62.8,13.86,59.2,59.0,59.1,59.5,58.7,36,39,34,0.610,32.3,34.1,30.5,12.32,14.4,197,14,19.8,0.00381,0.00531,53.4,52.0,24,550,0,63.1,7.66,0.00,0.00
15min,AgWx,beryljct,423,09OCT2018:15:15:00,62.7,13.89,59.3,59.2,59.1,59.3,58.9,36,38,34,0.619,32.2,33.9,30.6,13.11,14.1,198,11,17.9,0.00370,0.00519,53.5,52.1,24,527,0,62.4,7.66,0.00,0.00
15min,AgWx,beryljct,423,09OCT2018:15:30:00,62.7,13.78,59.4,59.0,59.3,59.6,58.9,36,39,33,0.603,32.3,34.3,30.2,12.3,13.4,202,15,21.0,0.00350,0.00494,53.6,52.3,24,488,0,61.9,7.66,0.00,0.00
15min,AgWx,beryljct,423,09OCT2018:15:45:00,62.5,13.83,58.8,58.5,58.8,59.2,58.5,36,39,33,0.610,31.6,33.9,29.6,13.5,14.6,208,12,19.9,0.00334,0.00484,53.7,52.4,24,445,0,60.7,7.66,0.00,0.00
15min,AgWx,beryljct,423,09OCT2018:16:00:00,62.2,13.79,58.8,58.6,58.7,58.9,58.5,36,38,34,0.598,31.8,33.4,30.6,17.16,14.7,195,10,20.2,0.00313,0.00460,53.8,52.5,24,400,0,60.2,7.66,0.00,0.00
15min,AgWx,beryljct,423,09OCT2018:16:15:00,61.8,13.84,58.4,58.2,58.3,58.6,58.1,36,38,35,0.617,31.6,32.5,30.6,13.46,16.3,189,8.7,23.8,0.00301,0.00455,53.8,52.6,24,354,0,59.4,7.66,0.00,0.00
15min,AgWx,beryljct,423,09OCT2018:16:30:00,61.5,13.83,58.2,58.0,58.1,58.3,57.8,36,39,34,0.604,31.6,33.3,30.2,14.97,14.7,201,10,20.2,0.00268,0.00410,53.9,52.7,24,306,0,59.5,7.66,0.00,0.00
15min,AgWx,beryljct,423,09OCT2018:16:45:00,60.9,13.81,57.8,57.4,57.7,58.0,57.4,37,40,34,0.601,31.3,33.3,30.0,14.62,14.1,204,9.0,23.7,0.00240,0.00376,54.0,52.8,24,258,0,59.0,7.66,0.00,0.00
15min,AgWx,beryljct,423,09OCT2018:17:00:00,60.4,13.82,57.5,57.3,57.4,57.6,57.0,37,39,34,0.569,31.2,32.9,29.3,16.51,13.6,203,11,21.1,0.00213,0.00343,54.1,52.9,24,210,0,58.7,7.66,0.00,0.00
15min,AgWx,beryljct,423,09OCT2018:17:15:00,59.8,13.87,57.2,57.0,57.1,57.5,56.9,36,38,35,0.566,30.6,31.6,29.9,13,13.5,195,8.3,17.4,0.00093,0.00110,54.1,53.0,24,162,0,58.2,7.66,0.00,0.00
15min,AgWx,beryljct,423,09OCT2018:17:30:00,59.2,13.86,56.8,56.3,56.6,57.0,56.2,37,39,35,0.573,30.6,31.8,29.6,13.13,13.1,201,10,18.7,0.00085,0.00101,54.1,53.1,24,118,0,57.2,7.66,0.00,0.00
15min,AgWx,beryljct,423,09OCT2018:17:45:00,58.2,13.61,55.9,55.4,55.8,56.4,55.3,38,39,36,0.559,30.5,31.5,29.7,12.39,11.1,197,8.3,15.4,0.00071,0.00087,54.1,53.2,24,76,0,55.1,7.66,0.00,0.00
15min,AgWx,beryljct,423,09OCT2018:18:00:00,56.8,13.31,54.1,53.1,54.2,55.5,53.1,41,43,37,0.595,30.8,31.5,29.9,8.4,8.9,192,7.1,12.8,0.00050,0.00063,54.1,53.2,24,16,0,52.9,7.67,0.00,0.00
15min,AgWx,beryljct,423,09OCT2018:18:15:00,54.9,13.23,52.0,51.0,52.1,53.2,51.0,46,48,43,0.613,31.7,32.1,31.1,5.612,6.3,190,6.0,9.3,0.00029,0.00040,54.1,53.3,24,5,0,49.9,7.67,0.00,0.00
15min,AgWx,beryljct,423,09OCT2018:18:30:00,53.0,13.2,50.9,50.4,50.8,51.3,50.4,48,50,47,0.625,32.0,32.6,31.6,2.85,4.9,182,6.9,7.6,0.00018,0.00026,54.0,53.4,24,1,0,48.2,7.67,0.00,0.00
15min,AgWx,beryljct,423,09OCT2018:18:45:00,51.1,13.17,48.2,47.6,48.3,50.3,47.1,56,61,51,0.630,33.4,34.6,32.6,1.951,3.2,161,17,4.7,0.00001,0.00004,53.9,53.5,24,0,0,45.7,7.67,0.00,0.00
15min,AgWx,beryljct,423,09OCT2018:19:00:00,49.6,13.15,48.9,48.8,48.5,49.2,47.6,54,56,52,0.628,32.4,32.8,32.0,4.735,3.9,174,12,6.5,0.00007,0.00012,53.8,53.5,24,0,0,45.6,7.68,0.00,0.00
15min,AgWx,beryljct,423,09OCT2018:19:15:00,48.7,13.14,47.7,46.7,47.7,48.8,46.5,56,59,54,0.635,32.9,33.6,32.5,3.661,4.3,175,7.3,6.2,0.00008,0.00013,53.6,53.6,24,0,0,45.5,7.68,0.00,0.00
15min,AgWx,beryljct,423,09OCT2018:19:30:00,47.8,13.13,46.6,47.0,46.3,47.0,45.6,60,62,58,0.632,33.0,33.3,32.8,9.01,6.4,184,8.4,10.0,0.00015,0.00020,53.5,53.6,24,0,0,44.6,7.68,0.00,0.00
15min,AgWx,beryljct,423,09OCT2018:19:45:00,48.0,13.12,50.5,51.7,49.6,51.7,46.9,49,58,43,0.565,31.4,32.8,30.1,16.38,13.2,190,7.2,17.4,0.00044,0.00053,53.3,53.6,24,0,0,48.7,7.68,0.00,0.00
15min,AgWx,beryljct,423,09OCT2018:20:00:00,49.3,13.1,52.2,52.0,51.9,52.1,51.8,43,43,42,0.565,30.1,30.3,29.8,12.12,13.6,194,6.7,18.0,0.00056,0.00067,53.1,53.7,24,0,0,50.7,7.68,0.00,0.00
15min,AgWx,beryljct,423,09OCT2018:20:15:00,50.0,13.09,51.5,50.5,51.4,52.1,50.5,44,47,42,0.577,30.3,30.9,29.8,10.81,11.6,190,8.1,15.2,0.00049,0.00059,53.0,53.7,24,0,0,50.1,7.68,0.00,0.00
15min,AgWx,beryljct,423,09OCT2018:20:30:00,50.2,13.1,51.0,51.1,50.7,51.3,50.3,46,47,44,0.572,30.5,30.8,30.1,12.76,12.0,184,6.2,14.6,0.00047,0.00057,52.8,53.7,24,0,0,49.6,7.68,0.00,0.00
15min,AgWx,beryljct,423,09OCT2018:20:45:00,50.5,13.09,52.6,53.2,52.1,53.2,51.1,43,45,40,0.552,30.1,30.5,29.5,17.38,13.4,184,7.4,21.4,0.00056,0.00067,52.6,53.7,24,0,0,51.2,7.68,0.00,0.00
15min,AgWx,beryljct,423,09OCT2018:21:00:00,51.5,13.09,54.6,54.4,54.2,54.7,53.3,39,40,38,0.565,29.8,30.6,29.2,11.44,14.5,187,7.1,20.8,0.00066,0.00079,52.4,53.7,24,0,0,53.8,7.68,0.00,0.00
15min,AgWx,beryljct,423,09OCT2018:21:15:00,52.7,13.08,54.7,54.8,54.4,54.9,54.1,39,41,38,0.571,30.2,30.8,29.7,13.13,12.4,183,9.2,19.7,0.00061,0.00074,52.3,53.7,24,0,0,54.5,7.68,0.00,0.00
15min,AgWx,beryljct,423,09OCT2018:21:30:00,53.6,13.07,55.1,54.8,54.9,55.2,54.6,39,40,38,0.579,30.3,30.8,29.7,11.14,12.5,185,8.7,18.2,0.00063,0.00076,52.1,53.7,24,0,0,55.0,7.68,0.00,0.00
15min,AgWx,beryljct,423,09OCT2018:21:45:00,54.2,13.08,55.8,55.7,55.4,55.7,54.8,38,40,37,0.556,30.1,30.7,29.7,12.56,12.1,196,10,17.5,0.00063,0.00077,52.0,53.6,24,0,0,55.4,7.68,0.00,0.00
15min,AgWx,beryljct,423,09OCT2018:22:00:00,54.9,13.06,56.2,56.5,55.9,56.5,55.5,37,38,35,0.548,29.8,30.5,29.2,15.83,14.1,200,9.5,21.5,0.00071,0.00086,51.9,53.6,24,0,0,55.8,7.68,0.00,0.00
15min,AgWx,beryljct,423,09OCT2018:22:15:00,55.5,13.06,56.5,56.2,56.3,56.6,56.1,36,37,34,0.548,29.6,30.3,28.8,14.93,14.3,207,9.9,21.4,0.00074,0.00089,51.7,53.6,24,0,0,56.2,7.68,0.00,0.00
15min,AgWx,beryljct,423,09OCT2018:22:30:00,55.9,13.06,56.4,56.3,56.2,56.3,56.0,36,37,35,0.540,29.3,30.0,28.8,12.98,14.9,211,11,21.1,0.00076,0.00090,51.7,53.6,24,0,0,56.2,7.68,0.00,0.00
15min,AgWx,beryljct,423,09OCT2018:22:45:00,56.0,13.06,55.9,55.5,55.8,56.3,55.5,36,37,35,0.553,29.4,30.0,29.0,13.39,14.3,219,9.4,20.9,0.00072,0.00087,51.6,53.5,24,0,0,55.8,7.68,0.00,0.00
15min,AgWx,beryljct,423,09OCT2018:23:00:00,55.9,13.05,55.9,55.8,55.6,55.9,55.4,36,37,35,0.539,29.1,29.7,28.7,15.19,14.4,216,8.7,19.9,0.00073,0.00087,51.5,53.5,24,0,0,55.7,7.68,0.00,0.00
15min,AgWx,beryljct,423,09OCT2018:23:15:00,56.0,13.05,55.8,54.8,55.7,56.0,54.8,36,40,35,0.588,29.3,31.1,28.5,7.782,12.8,232,18,20.2,0.00068,0.00083,51.4,53.5,24,0,0,55.8,7.68,0.00,0.00
15min,AgWx,beryljct,423,09OCT2018:23:30:00,55.2,13.05,51.7,49.9,52.1,54.8,49.8,52,60,41,0.738,34.7,36.7,31.4,16,13.0,312,17,18.9,0.00045,0.00055,51.4,53.5,24,0,0,52.2,7.68,0.00,0.00
15min,AgWx,bigpiney,439,09OCT2018:00:00:00,36.2,12.65,32.5,32.1,32.1,32.2,32.1,86,87,86,0.529,28.5,28.7,28.5,10.19,11.3,180,7.1,15.6,0.00005,0.00006,43.9,45.9,30,0,0,0.0,.,0.00,0.00
15min,AgWx,bigpiney,439,09OCT2018:00:15:00,36.1,12.64,32.5,32.1,32.1,32.3,32.1,86,86,86,0.527,28.4,28.5,28.3,9.29,11.9,185,9.2,15.7,0.00005,0.00006,43.8,45.9,30,0,0,0.0,.,0.00,0.00
15min,AgWx,bigpiney,439,09OCT2018:00:30:00,36.1,12.64,32.5,32.2,32.2,32.3,32.1,85,86,84,0.519,28.1,28.5,27.9,10.79,10.0,189,7.6,14.5,0.00005,0.00007,43.7,45.8,30,0,0,0.0,.,0.00,0.00
15min,AgWx,bigpiney,439,09OCT2018:00:45:00,36.1,12.64,32.6,32.2,32.2,32.3,32.1,84,85,84,0.520,28.0,28.1,27.9,8.62,8.0,196,9.5,11.7,0.00004,0.00006,43.7,45.9,30,0,0,0.0,.,0.00,0.00
15min,AgWx,bigpiney,439,09OCT2018:01:00:00,36.1,12.63,32.7,32.5,32.3,32.5,32.2,84,85,83,0.514,28.0,28.1,27.7,8.42,7.6,190,8.8,11.3,0.00004,0.00006,43.6,45.9,30,0,0,0.0,.,0.00,0.00
15min,AgWx,bigpiney,439,09OCT2018:01:15:00,36.2,12.63,32.7,32.2,32.4,32.6,32.2,82,83,82,0.507,27.6,27.8,27.4,7.804,8.0,182,7.1,11.5,0.00005,0.00007,43.6,45.8,30,0,0,0.0,.,0.00,0.00
15min,AgWx,bigpiney,439,09OCT2018:01:30:00,36.1,12.61,32.6,32.2,32.2,32.3,32.2,82,83,81,0.499,27.2,27.5,27.0,7.673,7.6,180,8.6,12.4,0.00005,0.00007,43.5,45.9,30,0,0,0.0,.,0.00,0.00
15min,AgWx,bigpiney,439,09OCT2018:01:45:00,36.0,12.6,32.5,32.2,32.1,32.3,32.0,81,82,81,0.502,27.0,27.2,27.0,8.48,7.1,175,7.5,10.8,0.00005,0.00007,43.5,45.8,30,0,0,0.0,.,0.00,0.00
15min,AgWx,bigpiney,439,09OCT2018:02:00:00,35.9,12.59,32.4,31.9,32.1,32.3,31.8,82,83,81,0.504,27.2,27.3,27.0,6.555,6.8,172,8.3,10.9,0.00004,0.00006,43.4,45.8,30,0,0,0.0,.,0.00,0.00
15min,AgWx,bigpiney,439,09OCT2018:02:15:00,35.7,12.6,32.1,31.4,31.8,32.0,31.4,83,85,83,0.505,27.3,27.4,27.2,6.423,7.2,165,11,11.5,0.00004,0.00005,43.4,45.8,30,0,0,0.0,.,0.00,0.00
15min,AgWx,bigpiney,439,09OCT2018:02:30:00,35.3,12.58,31.1,30.2,30.9,31.5,30.2,86,87,85,0.494,27.1,27.4,26.7,2.784,4.4,154,6.8,7.7,0.00000,0.00001,43.3,45.8,30,0,0,0.0,.,0.00,0.00
15min,AgWx,bigpiney,439,09OCT2018:02:45:00,34.7,12.57,30.1,29.4,29.9,30.3,29.4,87,88,87,0.480,26.6,27.1,26.1,4.494,3.4,151,7.4,4.6,-0.00002,-0.00002,43.3,45.7,30,0,0,0.0,.,0.00,0.00
15min,AgWx,bigpiney,439,09OCT2018:03:00:00,33.8,12.57,29.4,29.3,29.2,29.6,28.7,88,89,87,0.483,26.0,26.5,25.4,3.617,4.2,135,6.4,5.8,-0.00001,-0.00001,43.2,45.8,30,0,0,0.0,.,0.00,0.00
15min,AgWx,bigpiney,439,09OCT2018:03:15:00,33.2,12.55,30.2,30.0,29.8,30.3,29.3,87,88,86,0.491,26.5,27.0,26.0,2.499,2.8,156,11,4.1,-0.00003,-0.00003,43.2,45.7,30,0,0,0.0,.,0.00,0.00
15min,AgWx,bigpiney,439,09OCT2018:03:30:00,32.8,12.54,30.3,29.6,30.0,30.2,29.6,87,87,86,0.477,26.5,26.8,25.9,5.393,3.6,133,8.2,5.4,-0.00001,-0.00001,43.2,45.7,30,0,0,0.0,.,0.00,0.00
15min,AgWx,bigpiney,439,09OCT2018:03:45:00,32.3,12.52,28.3,27.4,28.2,29.5,27.4,88,88,86,0.447,25.0,25.9,24.4,4.099,5.2,122,4.0,5.9,0.00000,0.00001,43.1,45.7,30,0,0,0.0,.,0.00,0.00
15min,AgWx,bigpiney,439,09OCT2018:04:00:00,31.8,12.52,27.4,27.1,27.2,27.4,26.9,89,90,88,0.450,24.4,24.7,24.2,4.56,4.6,124,4.5,5.4,-0.00001,-0.00001,43.1,45.8,30,0,0,0.0,.,0.00,0.00
15min,AgWx,bigpiney,439,09OCT2018:04:15:00,31.3,12.51,27.6,27.0,27.2,27.5,26.9,90,91,89,0.452,24.6,24.9,24.3,3.179,3.8,114,5.5,6.1,-0.00002,-0.00002,43.0,45.7,30,0,0,0.0,.,0.00,0.00
15min,AgWx,bigpiney,439,09OCT2018:04:30:00,31.0,12.5,27.5,27.1,27.1,27.3,26.9,91,92,90,0.459,24.8,25.1,24.5,1.622,2.3,120,6.6,3.5,-0.00004,-0.00005,43.0,45.7,30,0,0,0.0,.,0.00,0.00
15min,AgWx,bigpiney,439,09OCT2018:04:45:00,30.6,12.48,27.3,27.0,27.0,27.2,26.7,92,93,92,0.463,25.0,25.3,24.9,4.253,3.1,128,5.9,4.5,-0.00004,-0.00004,42.9,45.7,30,0,44,0.0,.,0.00,0.00
15min,AgWx,bigpiney,439,09OCT2018:05:00:00,30.2,12.47,26.6,26.1,26.3,27.0,25.9,93,93,92,0.443,24.4,25.3,23.9,3.639,4.3,134,7.7,5.3,-0.00002,-0.00002,42.9,45.7,30,0,100,0.0,.,0.00,0.00
15min,AgWx,bigpiney,439,09OCT2018:05:15:00,29.7,12.45,26.1,25.4,25.9,26.3,25.0,92,93,91,0.430,23.9,24.4,22.7,4.012,3.1,148,8.1,4.1,-0.00003,-0.00004,42.8,45.7,30,0,100,0.0,.,0.00,0.00
15min,AgWx,bigpiney,439,09OCT2018:05:30:00,29.0,12.43,25.1,25.0,24.9,25.4,24.5,92,93,92,0.425,22.9,23.4,22.5,2.762,2.9,190,21,3.9,-0.00004,-0.00004,42.8,45.6,30,0,73,0.0,.,0.00,0.00
15min,AgWx,bigpiney,439,09OCT2018:05:45:00,28.3,12.42,24.8,24.8,24.5,25.4,23.6,93,93,91,0.424,22.6,23.7,21.4,2.894,1.9,255,29,2.9,-0.00005,-0.00006,42.7,45.6,30,0,0,0.0,.,0.00,0.00
15min,AgWx,bigpiney,439,09OCT2018:06:00:00,27.5,12.4,24.9,24.6,24.6,25.0,23.7,92,93,91,0.419,22.7,23.3,21.5,3.266,3.3,294,4.6,4.2,-0.00003,-0.00003,42.7,45.6,30,0,0,0.0,.,0.00,0.00
15min,AgWx,bigpiney,439,09OCT2018:06:15:00,26.9,12.38,24.8,24.3,24.5,25.1,23.6,93,93,91,0.412,22.6,23.4,21.5,2.17,3.1,290,7.3,4.3,-0.00003,-0.00004,42.6,45.6,30,0,0,0.0,.,0.00,0.00
15min,AgWx,bigpiney,439,09OCT2018:06:30:00,26.3,12.38,23.1,23.1,22.9,24.7,21.0,93,95,89,0.402,21.1,23.2,19.0,1.337,1.7,72,58,4.2,-0.00005,-0.00006,42.6,45.6,30,3,0,0.0,.,0.00,0.00
15min,AgWx,bigpiney,439,09OCT2018:06:45:00,25.8,12.4,24.7,24.7,24.0,24.8,23.2,95,96,95,0.434,22.9,23.7,22.0,0,0.9,112,6.2,1.7,-0.00018,-0.00019,42.6,45.6,30,10,0,0.0,.,0.00,0.00
15min,AgWx,bigpiney,439,09OCT2018:07:00:00,25.4,12.4,23.9,22.3,23.7,25.2,21.9,95,96,93,0.386,22.4,24.1,20.2,1.951,1.2,206,13,2.0,-0.00011,-0.00011,42.5,45.6,30,22,0,0.0,.,0.00,0.00
15min,AgWx,bigpiney,439,09OCT2018:07:15:00,25.1,12.41,21.3,21.7,21.0,22.4,19.7,93,94,92,0.374,19.4,20.9,17.7,1.907,2.1,246,26,3.4,0.00004,0.00005,42.5,45.6,30,31,0,0.0,.,0.00,0.00
15min,AgWx,bigpiney,439,09OCT2018:07:30:00,25.4,12.42,25.0,25.8,24.2,25.8,21.8,95,95,94,0.449,22.8,24.5,20.3,0,0.5,266,11,1.9,0.00011,0.00012,42.4,45.6,30,43,0,0.0,.,0.00,0.00
15min,AgWx,bigpiney,439,09OCT2018:07:45:00,26.5,12.42,27.6,28.5,27.0,28.5,25.9,95,95,95,0.504,25.7,27.3,24.5,5.393,1.5,167,12,8.2,0.00017,0.00019,42.4,45.6,30,49,0,0.0,.,0.00,0.00
15min,AgWx,bigpiney,439,09OCT2018:08:00:00,28.0,12.43,29.7,29.7,29.3,29.7,28.6,94,95,91,0.504,27.6,27.9,27.3,6.971,5.4,169,11,8.5,0.00021,0.00026,42.3,45.5,30,49,0,0.0,.,0.00,0.00
15min,AgWx,bigpiney,439,09OCT2018:08:15:00,29.5,12.49,30.4,30.2,30.0,30.2,29.7,89,91,88,0.497,27.1,27.4,26.9,6.686,6.5,170,11,10.1,0.00030,0.00038,42.3,45.5,30,64,0,0.0,.,0.00,0.00